Tracking 30995 objects as of 5-Jul-2025
HD Live streaming from Space Station
objects crossing your sky now

STARLINK-31242

Track STARLINK-31242 now!
10-day predictions
STARLINK-31242 is classified as:


NORAD ID: 58864
Int'l Code: 2024-019M
Perigee: 489.4 km
Apogee: 490.9 km
Inclination: 43.0 °
Period: 94.3 minutes
Semi major axis: 6861 km
RCS: Unknown
Launch date: January 29, 2024
Source: United States (US)
Launch site: AIR FORCE EASTERN TEST RANGE (AFETR)
Your satellite tracking list
ONEWEB-0222
Track 1 satellite(s)




NASA's NSSDC Master Catalog

Two Line Element Set (TLE):
1 58864U 24019M   25186.40628187 -.00000550  00000-0 -10470-4 0  9993
2 58864  42.9999 205.4426 0001118 279.2670  80.8055 15.27582806 81269
Source of the keplerian elements: AFSPC